COSMOS 2499 DEB, 56581

Orbit data source: Space-Track

COSMOS 2499 DEB, 56581 is space debris in LEO originally from a launch on Fri, 23 May 2014 UTC launched from the Plesetsk Missile And Space Complex (PKMTR). Debris objects in space refer to the collection of defunct objects orbiting the Earth. Examples of debris include non-operational satellites, rocket bodies, and fragments generated from explosions, collisions, or faulty payload assembly.

Loading next visibility...
Identifier
56581, 2014-028BQ
Orbit
LEO
Country
Flag of CISCIS
Related business
Manufacturer
TsNIIKhM
Mission
Spacecraft
Bus & Motor
Unknown
Mass
Unknown
Launch date (UTC)
2014-05-23 (12 years ago)
Launch vehicle
Unknown
Launch site
Plesetsk Missile And Space Complex (PKMTR)
Object type
Payload
Rocket body
Debris
Shape & HBR
Unknown shape, 0.1 m
Radar Cross Section
Small (<0.1 m²)

Expand to show TLE details & history
Last TLE update: 5 days ago

TLE from 5 days ago
0 COSMOS 2499 DEB
1 56581U 14028BQ  25345.62034504  .00014070  00000-0  22339-1 0  9995
2 56581  82.2497 309.1788 0305704 284.2580  72.4782 13.32401908 73846
Epoch: 2025-12-11T14:53Z
TLE epoch observation values (Epoch: 2025-12-11T14:53:17.811Z)
Latitude
0.00005°
Longitude
5.28089°
Altitude
1,077.83 km
Speed
7.344 km/s
True Right ascension
20h 36m 42s
True Declination
0° 00' 00"
Sunlit
Object was in daylight at epoch
Visualization orbit readout
Latitude
Unknown
Longitude
Unknown
Altitude
Unknown
Speed
Unknown
Apparent Right ascension
Unknown
Apparent Declination
Unknown
Sunlit
N/A
Visualization observer readout
Local Sidereal Time
12:48:44
Azimuth
Unknown
Elevation
Unknown
Doppler factor
Unknown
Orbital elements
Apogee altitude
1,364.627 km
Perigee altitude
905.271 km
Semi-major axis
7,513.086 km
Eccentricity
0.03057
Inclination
82.2497°
RAAN
309.1788°
Arg. of periapsis
284.258°
True anomaly
75.85568°
Mean anomaly
72.4782°
Eccentric anomaly
74.16327°
Mean motion
3.33285 °/min
Orbital period
108.02 mins
BSTAR
0.022339
Loading maneuver chart data...
Computing Atmospheric mass density...
Loading historical data...
Loading historical data...
Loading historical data...
Loading historical data...
Loading historical data...
Loading historical data...
Loading historical data...

Documentation

Showing up to 5 results
|